Regional Weather Roundup
Issued by NWS Portland, ME

Current Version | Previous Version | Text Only | Print | Product List | Glossary Off
Versions: 1 2 3 4 5 6 7 8 9 10 11 12 13 14 15 16 17 18 19 20 21 22 23 24 25 26 27 28 29 30 31 32 33 34 35 36 37 38 39 40 41 42 43 44 45 46 47 48 49 50
000 ASUS41 KGYX 222205 RWRGYX WEATHER ROUNDUP FOR MAINE AND NEW HAMPSHIRE NATIONAL WEATHER SERVICE GRAY ME 600 PM EDT FRI JUN 22 2018 MEZ002-005-006-010-012-015-018-020-021-024-026-027-029-222300- MAINE CITY SKY/WX TMP DP RH WIND PRES REMARKS PORTLAND PTSUNNY 66 48 52 S14G22 30.05F SANFORD FAIR 68 49 50 CALM 30.04F WISCASSET FAIR 68 42 38 SW8 30.06F ROCKLAND FAIR 66 40 38 SW8 30.06S FRYEBURG FAIR 74 57 55 SE6 30.00F LEWISTONAUBURN FAIR 68 50 52 S10 30.03F AUGUSTA FAIR 69 44 40 SW7 30.04S WATERVILLE FAIR 71 47 42 S8 29.99F BANGOR FAIR 72 45 37 S9 30.01F GREENVILLE N/A 73 44 35 VRB6 29.98F MILLINOCKET FAIR 77 43 29 VRB5 29.97F HOULTON FAIR 74 44 34 SW12 29.94F PRESQUE ISLE NOT AVBL FRENCHVILLE FAIR 76 44 32 SW9 29.91F CARIBOU FAIR 76 42 29 W10G20 29.91F $$ NHZ002-005-008-009-011-012-014-222300- NEW HAMPSHIRE CITY SKY/WX TMP DP RH WIND PRES REMARKS ROCHESTER FAIR 69 50 50 S7 30.03S NASHUA FAIR 75 51 43 SE13G18 30.02F MANCHESTER PTSUNNY 77 49 37 SE14 30.00F CONCORD FAIR 74 53 48 S9 30.01S LACONIA FAIR 76 47 35 SW10 30.01 PLYMOUTH FAIR 75 44 32 SE3 29.99F BERLIN FAIR 78 41 26 N7 30.00S WHITEFIELD FAIR 77 47 34 NW6 30.00S JAFFREY FAIR 76 52 43 S7 30.03F KEENE FAIR 78 53 41 S8 30.00S LEBANON FAIR 79 42 26 S6 29.98F MT WASHINGTON PTSUNNY 54 37 54 W18 N/A $$ VTZ005-007-008-222300- VERMONT CITY SKY/WX TMP DP RH WIND PRES REMARKS ST JOHNSBURY N/A 76 42 29 MISG 29.97S MONTPELIER FAIR 73 47 39 S8 30.03F BURLINGTON PTSUNNY 79 40 24 S7 29.95F $$ MAZ007-012-024-CTZ003-RIZ002-NYZ038-NYZ072-222300- SOUTHERN NEW ENGLAND AND NY CITY SKY/WX TMP DP RH WIND PRES REMARKS BOSTON PTSUNNY 69 54 58 SE12 30.03F WORCESTER PTSUNNY 70 57 63 S15 30.04S NANTUCKET FAIR 64 47 53 E13 30.06S PROVIDENCE PTSUNNY 67 52 58 S13 30.06R HARTFORD PTSUNNY 77 60 55 S12 30.01S ALBANY PTSUNNY 79 55 43 S12 29.97S NEW YORK CITY PTSUNNY 73 55 53 SE12 29.99S $$ ANZ081-ANZ082-ANZ150-NHZ014-MEZ023>029-222300- COASTAL MARINE OBSERVATIONS STATION/POSITION TIME TEMP WIND PRES WAVE AIR SEA DIR/SP/G HT/PER (UTC) (F) (DEG/KT/KT) (MB) (FT/S) MOUNT DESERT ROC 2200 56 210/ 13/ 14 1018.1R MATINICUS ROCK 2100 60 210/ 9/ 10 1017.9S ISLE OF SHOALS 2100 61 150/ 12/ 13 1017.5F JEFFREYS LEDGE 2136 63 N/A 2/ 7 $$ .............KEY.............. WCI - WIND CHILL TC - TEMPERATURE IN CELSIUS VSB - VISIBILITY IN MILES HX - HEAT INDEX FAIR- INDICATES FEW OR NO CLOUDS BELOW 12,000 FT, WITH NO SIGNIFICANT WEATHER AND/OR OBSTRUCTIONS TO VISIBILITY.

USA.gov is the U.S. government's official web portal to all federal, state and local government web resources and services.